Weather History for Lafayette, LA

Change the Weather History Date:

Monday, February 27, 2012

  Actual Average Record
Temperature  
Mean Temperature 61 °F 58 °F  
Max Temperature 65 °F 68 °F 83 °F (1962)
Min Temperature 57 °F 49 °F 25 °F (1914)
Degree Days  
Heating Degree Days 4 7  
Month to date heating degree days 203 268  
Since 1 July heating degree days 993 1224  
Growing Degree Days 10 (Base 50)    
Moisture  
Dew Point 56 °F    
Average Humidity 83    
Maximum Humidity 93    
Minimum Humidity 73    
Precipitation  
Precipitation 0.00 in 0.14 in 2.98 in (1923)
Month to date precipitation 4.80 4.31  
Year to date precipitation 11.50 9.98  
Snow  
Snow 0.00 in 0.00 in 0.00 in ()
Month to date snowfall 0.0 0.0  
Since 1 July snowfall 0.0 0.0  
Snow Depth 0.00 in    
Sea Level Pressure  
Sea Level Pressure 30.23 in    
Wind  
Wind Speed 8 mph (ENE)    
Max Wind Speed 15 mph    
Max Gust Speed 22 mph    
Visibility 8 miles    
Events      
T = Trace of Precipitation, MM = Missing Value Source: NWS Daily Summary

Daily Weather History Graph

Daily Weather History Graph

Search for Another Location

Airport:

Trip Planner

Search our weather history database for the weather conditions in past years. The results will help you decide how hot, cold, wet, or windy it might be!

Date:

Astronomy

Feb. 27, 2012 Rise Set
Actual Time 6:36 AM CST 6:05 PM CST
Civil Twilight 6:12 AM CST 6:29 PM CST
Nautical Twilight 5:44 AM CST 6:57 PM CST
Astronomical Twilight 5:16 AM CST 7:24 PM CST
Moon 9:34 AM CST (2/27) 11:29 PM CST (2/27)
Length of Visible Light 12h 16m
Length of Day
11h 28m
Waxing Crescent, 29% of the Moon is Illuminated
Feb 27
Waxing Crescent
Feb 29
First Quarter
Mar 8
Full
Mar 14
Last Quarter
Mar 22
New

Hourly Weather History & Observations

Time (CST) Temp. Dew Point Humidity Pressure Visibility Wind Dir Wind Speed Gust Speed Precip Events Conditions
12:53 AM 57.9 °F 55.0 °F 90% 30.19 in 5.0 mi East 6.9 mph - N/A   Overcast
1:45 AM 57.2 °F 55.4 °F 94% 30.20 in 4.0 mi Variable 4.6 mph - N/A   Overcast
1:53 AM 57.9 °F 55.9 °F 93% 30.20 in 4.0 mi Variable 4.6 mph - N/A   Overcast
2:53 AM 57.9 °F 55.9 °F 93% 30.21 in 4.0 mi NE 5.8 mph - N/A   Overcast
3:53 AM 57.0 °F 55.9 °F 96% 30.20 in 4.0 mi ENE 4.6 mph - N/A   Overcast
4:53 AM 57.0 °F 55.9 °F 96% 30.21 in 5.0 mi NE 5.8 mph - N/A   Overcast
5:53 AM 57.0 °F 55.9 °F 96% 30.22 in 6.0 mi NE 8.1 mph - N/A   Overcast
6:53 AM 57.0 °F 55.0 °F 93% 30.22 in 6.0 mi NE 8.1 mph - N/A   Overcast
7:39 AM 57.2 °F 55.4 °F 94% 30.26 in 7.0 mi NE 6.9 mph - N/A   Overcast
7:53 AM 57.0 °F 55.0 °F 93% 30.27 in 8.0 mi NE 8.1 mph - N/A   Overcast
8:53 AM 57.9 °F 54.0 °F 87% 30.28 in 9.0 mi NE 8.1 mph - N/A   Overcast
9:53 AM 59.0 °F 54.0 °F 83% 30.28 in 10.0 mi NNE 11.5 mph - N/A   Overcast
10:53 AM 59.0 °F 54.0 °F 83% 30.30 in 10.0 mi NE 10.4 mph - N/A   Overcast
11:53 AM 63.0 °F 55.9 °F 78% 30.26 in 10.0 mi NE 12.7 mph 17.3 mph N/A   Overcast
12:53 PM 63.0 °F 55.9 °F 78% 30.24 in 10.0 mi NNE 13.8 mph 19.6 mph N/A   Overcast
1:12 PM 62.6 °F 55.4 °F 77% 30.24 in 10.0 mi NNE 12.7 mph 21.9 mph N/A   Overcast
1:53 PM 62.1 °F 55.9 °F 80% 30.23 in 9.0 mi NE 10.4 mph - N/A   Overcast
2:53 PM 64.0 °F 55.9 °F 75% 30.22 in 10.0 mi NE 11.5 mph 16.1 mph N/A   Overcast
3:53 PM 64.0 °F 55.9 °F 75% 30.21 in 10.0 mi East 8.1 mph - N/A   Mostly Cloudy
4:53 PM 63.0 °F 55.9 °F 78% 30.21 in 10.0 mi ENE 6.9 mph - N/A   Overcast
5:33 PM 62.6 °F 55.4 °F 77% 30.22 in 10.0 mi Variable 5.8 mph - N/A   Overcast
5:53 PM 62.1 °F 55.9 °F 80% 30.23 in 10.0 mi Variable 3.5 mph - N/A   Overcast
6:53 PM 62.1 °F 57.0 °F 84% 30.24 in 10.0 mi ENE 4.6 mph - N/A   Overcast
7:29 PM 62.6 °F 57.2 °F 82% 30.23 in 10.0 mi ENE 5.8 mph - N/A   Overcast
7:53 PM 62.1 °F 57.0 °F 84% 30.23 in 10.0 mi East 5.8 mph - N/A   Overcast
8:21 PM 62.6 °F 57.2 °F 82% 30.23 in 10.0 mi East 9.2 mph - N/A   Overcast
8:53 PM 62.1 °F 57.0 °F 84% 30.25 in 10.0 mi East 3.5 mph - N/A   Overcast
9:53 PM 61.0 °F 57.9 °F 90% 30.25 in 10.0 mi East 6.9 mph - N/A   Overcast
10:10 PM 60.8 °F 57.2 °F 88% 30.24 in 10.0 mi East 4.6 mph - N/A   Overcast
10:53 PM 61.0 °F 57.9 °F 90% 30.24 in 7.0 mi East 4.6 mph - N/A   Overcast
11:53 PM 61.0 °F 57.9 °F 90% 30.22 in 5.0 mi East 5.8 mph - N/A   Overcast